SCP
0 0 0 0 0 -0 -0 -0 -0 -0 -0 -0 -0 -0 -0 -0 -0 -0 0 0 -0 -0 0 0 0 0 0 0 0 0 0 0 0 0 0 0 0 -0 -0 -0 0 0 -0
0 0 0 0 -0 -0 -0 0 -0 -0 -0 -0 -0 0 0 0 0 0 0 0 0 0 0 0 0 0 0 0 0 0 0 0 0 0 0 0 0 0 -0 -0 0 0 0
0 0 0 0 -0 0 0 0 0 0 0 0 0 0 0 0 0 0 0 0 0 0 0 0 0 0 0 0 0 0 0 0 0 0 0 0 0 0 -0 -0 0 0 0
0 0 0 0 -0 0 0 0 0 0 0 0 0 0 0 0 0 0 0 0 0 0 0 0 0 0 0 0 0 0 -0 -0 0 0 0 0 0 0 0 -0 -0 0 0
0 0 0 0 0 0 0 0 0 0 0 0 0 0 0 0 0 0 0 0 0 0 0 0 0 0 0 0 0 0 0 0 0 0 0 0 0 0 0 -0 0 0 0
0 0 0 0 0 0 0 0 0 0 0 0 0 0 0 0 0 0 0 0 0 0 0 0 0 0 0 0 0 0 0 0 0 0 0 0 0 0 0 0 0 0 0
0 0 0 0 0 0 0 0 0 0 0 0 0 0 0 0 0 0 0 0 0 0 0 0 0 0 0 0 0 0 0 0 0 0 0 0 0 0 0 0 0 0 0
0 0 0 0 0 0 0 0 0 0 0 0 0 0 0 0 0 0 0 0 0 0 0 0 0 0 0 0 0 0 0 0 0 0 0 0 0 0 0 0 0 0 0
0 0 0 0 0 0 0 0 0 0 0 0 0 0 0 0 0 0 0 0 0 0 0 0 0 0 0 0 0 0 0 0 0 0 0 0 0 0 0 0 0 0 0
0 0 0 0 0 0 0 0 0 0 0 0 0 0 0 0 0 0 0 0 0 0 0 0 0 0 0 0 0 0 0 0 0 0 0 0 0 0 0 0 0 0 0
0 0 0 0 0 0 0 0 0 0 0 0 0 0 0 0 0 0 0 0 0 0 0 0 0 0 0 0 0 0 0 0 0 0 0 0 0 0 0 0 0 0 0
0 0 0 0 0 0 0 0 0 0 0 0 0 0 0 0 0 0 0 0 0 0 0 0 0 0 0 0 0 0 0 0 0 0 0 0 0 0 0 0 0 0 0
0 0 0 0 0 0 0 0 0 0 0 0 0 0 0 0 0 0 0 0 0 0 0 0 0 0 0 0 0 0 0 0 0 0 0 0 0 0 0 0 0 0 0
0 0 0 0 0 0 0 0 0 0 0 0 0 0 0 0 0 0 0 0 0 0 0 0 0 0 0 0 0 0 0 0 0 0 0 0 0 0 0 0 0 0 0
0 0 0 0 0 0 0 0 0 0 0 0 0 0 0 0 0 0 0 0 0 0 0 0 0 0 0 0 0 0 0 0 0 0 0 0 0 0 0 0 0 0 0
0 0 0 0 0 0 0 0 0 0 0 0 0 0 0 0 0 0 0 0 0 0 0 0 0 0 0 0 0 0 0 0 0 0 0 0 0 0 0 0 0 0 0
0 0 0 0 0 0 0 0 0 0 0 0 0 0 0 0 0 0 0 0 0 0 0 0 0 0 0 0 0 0 0 0 0 0 0 0 0 0 0 0 0 0 0
0 0 0 0 0 0 0 0 0 0 0 0 0 0 0 0 0 0 0 0 0 0 0 0 0 0 0 -0 0 0 0 0 0 0 0 0 0 0 0 0 0 0 0
0 0 0 0 0 0 0 0 0 0 0 0 0 0 0 0 0 0 0 0 0 0 0 0 0 -0 0 0 -0 0 0 0 0 0 0 0 0 0 0 0 0 0 0
0 0 0 0 0 0 0 0 0 0 0 0 0 0 0 0 0 0 0 0 0 0 0 0 0 0 -0 -0 -0 -0 -0 -0 -0 -0 -0 0 0 0 0 0 0 0 0
0 0 0 0 0 0 0 0 0 0 0 0 0 0 0 0 0 0 0 0 0 0 0 0 -0 -0 -0 -0 -0 -0 -0 -0 -0 0 0 0 0 0 0 0 0 0 0
0 0 0 0 0 0 0 0 0 0 0 0 0 0 0 0 0 0 0 0 0 0 0 0 0 -0 -0 0 -0 -0 -0 -0 0 0 0 0 0 0 0 0 0 0 0
0 0 0 0 0 0 0 0 0 0 0 0 0 0 0 0 0 0 0 0 0 0 0 0 0 0 0 0 0 0 0 0 0 0 0 0 0 0 0 0 0 0 0
0 0 0 0 0 0 0 0 0 0 0 0 0 0 0 0 0 0 0 0 0 0 0 0 0 0 0 0 0 0 0 0 0 0 0 0 0 0 0 0 0 0 0
0 0 0 0 0 0 0 0 0 0 0 0 0 0 0 0 0 0 0 0 0 0 0 0 0 0 0 0 0 0 0 0 0 0 0 0 0 0 0 0 0 0 0
0 0 0 0 0 0 0 0 0 0 0 0 0 0 0 0 0 0 0 0 0 0 0 0 0 0 0 0 0 0 0 0 0 0 0 0 0 0 0 0 0 0 0
Wind_Speed_500mb
40 34 30 29 23 21 26 22 19 18 17 16 16 14 14 12 10 9 8 5 9 8 5 4 5 4 5 5 7 10 11 12 13 14 17 21 25 26 19 8 8 11 15
47 44 30 28 23 19 18 19 18 17 17 15 12 10 9 7 7 4 3 4 4 5 6 6 2 4 3 3 7 10 11 13 14 14 16 19 20 22 20 6 7 7 12
48 43 36 28 22 14 17 17 20 17 15 14 12 10 7 6 4 4 3 5 6 7 9 9 9 7 7 8 8 9 10 12 14 16 14 15 17 19 16 8 11 8 10
40 38 32 32 25 19 18 18 18 13 13 13 11 9 9 9 8 9 9 11 12 12 14 15 16 15 15 15 12 13 14 15 15 18 17 17 17 17 16 11 6 15 12
35 32 29 28 22 20 19 15 15 14 11 9 8 7 7 7 8 11 13 15 16 17 18 19 20 18 17 17 18 18 17 18 19 17 19 18 16 18 17 13 8 17 18
32 30 29 27 26 23 20 18 17 15 12 11 8 7 8 9 11 13 15 17 18 19 20 21 23 23 23 22 23 24 23 21 22 21 20 21 17 18 17 15 13 11 25
31 28 28 27 23 21 19 17 15 13 11 9 9 10 11 13 15 18 20 21 23 24 25 25 25 25 25 26 26 27 26 25 27 27 24 23 23 21 20 20 17 14 17
28 28 26 26 24 21 19 17 14 11 8 8 8 10 13 15 16 19 21 23 25 27 29 30 30 30 30 30 30 29 30 31 31 33 32 28 26 26 23 24 22 20 17
27 26 26 25 22 18 15 12 9 6 6 9 11 12 14 16 16 18 20 23 24 25 27 29 31 31 32 33 34 35 35 35 36 37 38 36 31 30 28 26 26 26 25
31 28 24 22 18 14 10 7 5 5 7 10 12 13 14 15 17 18 20 22 24 25 26 27 27 28 31 32 34 36 37 38 41 43 43 45 43 39 36 35 31 31 32
36 31 25 20 16 14 10 8 7 8 8 11 14 14 15 17 18 18 19 20 22 24 26 27 29 29 29 30 32 34 35 38 41 43 46 50 51 50 47 44 42 39 37
41 34 27 23 19 14 11 9 9 9 9 12 14 16 17 18 20 21 21 22 24 25 27 28 30 31 33 33 33 35 36 37 39 41 43 47 52 56 57 56 53 50 48
41 38 32 25 21 16 12 10 10 11 13 14 16 18 18 19 21 23 24 25 26 28 29 30 32 33 35 37 36 38 39 40 42 43 43 45 49 53 57 61 61 60 58
43 36 34 29 20 16 14 12 13 14 16 17 18 18 19 20 22 24 26 28 30 31 32 35 37 38 40 41 42 42 43 44 45 46 46 47 49 52 55 59 63 64 66
42 39 34 28 21 17 14 13 14 17 18 19 20 21 22 24 25 27 29 32 34 37 39 40 42 43 45 45 46 48 48 48 48 50 51 50 51 53 55 58 61 64 69
42 39 34 29 23 19 16 14 14 16 19 21 23 25 24 27 29 31 33 36 38 41 43 45 48 50 51 53 52 52 52 51 52 53 54 55 54 56 57 59 61 64 67
42 39 35 29 25 22 20 18 19 21 23 24 25 28 29 31 34 37 39 40 42 44 46 48 50 53 55 57 58 58 58 58 57 59 60 59 59 58 59 62 63 66 68
43 39 34 32 29 27 24 22 23 25 27 27 27 29 30 35 38 42 43 43 43 44 48 53 56 59 60 63 65 66 66 66 66 67 66 64 63 62 61 60 64 67 70
42 38 35 33 31 29 28 26 27 29 28 27 28 30 33 38 42 45 45 45 45 47 51 56 58 62 66 68 71 70 69 68 67 66 61 58 54 53 55 55 57 63 68
44 40 36 36 34 31 30 30 30 29 27 27 30 33 38 43 45 45 44 44 47 50 53 57 61 63 67 73 77 77 74 71 69 56 52 52 51 50 47 46 48 50 55
48 43 38 37 35 33 31 32 31 29 30 31 33 38 41 44 44 42 42 44 48 52 56 61 66 69 71 72 78 82 81 67 58 52 41 42 43 42 41 42 44 48 51
47 43 38 36 34 32 32 33 33 32 33 34 36 40 42 43 41 40 42 47 50 54 57 61 66 72 73 67 65 68 41 65 48 35 55 38 34 38 40 43 45 48 52
42 41 35 31 31 30 33 33 34 37 38 39 40 42 41 40 38 40 45 49 52 57 62 66 68 67 66 65 52 37 21 18 64 45 34 49 38 39 46 46 50 54 58
35 35 31 30 30 29 30 33 37 41 43 41 40 37 37 37 38 43 47 51 54 59 62 64 65 62 57 56 51 38 35 36 20 38 41 63 66 49 56 57 52 50 45
30 30 29 28 28 28 31 36 42 45 43 41 38 37 35 37 42 45 48 52 55 58 60 62 61 55 47 43 36 35 32 34 41 53 69 49 73 64 69 68 60 51 47
27 29 28 29 26 29 36 40 43 44 40 40 37 37 37 40 42 45 48 50 53 56 58 57 55 48 42 38 36 37 37 39 39 47 62 68 71 78 74 67 60 52 47
Wind_Direction_500mb
167 163 143 155 153 152 148 152 156 153 150 149 152 154 158 160 161 160 146 136 112 75 56 32 36 24 9 354 343 332 334 334 341 350 353 1 6 17 34 117 125 122 127
174 177 166 170 170 177 154 146 141 148 149 149 151 153 150 155 163 159 161 171 166 158 108 64 272 253 271 335 333 321 320 322 322 330 339 346 359 11 21 106 168 164 159
180 180 179 186 190 189 176 169 147 151 152 157 161 164 168 181 195 188 218 256 259 251 251 260 276 288 290 290 285 297 305 307 308 312 322 332 341 356 11 17 185 216 206
182 187 184 189 198 202 189 166 150 163 170 173 183 195 205 222 238 257 268 275 278 280 280 286 294 303 298 292 289 285 283 290 294 299 306 318 323 337 346 357 234 207 226
174 179 193 201 205 189 179 168 173 179 183 186 195 205 221 240 249 264 270 275 277 280 281 282 284 283 278 278 280 281 281 283 286 291 293 299 304 317 326 326 319 234 220
166 163 165 172 173 170 165 165 167 173 182 192 205 230 248 265 275 276 277 277 279 280 279 280 282 282 279 275 275 279 285 285 285 283 283 286 286 295 304 303 304 279 242
172 169 166 167 169 164 162 164 165 172 183 198 220 243 257 263 272 277 281 281 281 283 282 281 279 279 280 279 276 276 276 276 277 279 275 275 280 280 289 290 289 283 262
178 175 175 170 171 173 172 174 172 183 198 224 244 266 276 280 280 282 282 283 284 285 286 286 284 282 281 279 277 276 274 273 274 276 277 274 270 276 284 288 287 278 269
176 178 176 174 175 173 176 179 186 208 246 268 275 276 284 289 289 291 292 293 293 291 289 290 289 288 286 283 278 275 273 272 270 269 273 274 269 266 267 272 279 282 274
180 181 182 179 180 184 193 209 230 258 280 289 293 294 298 300 303 303 303 304 303 301 301 299 296 293 291 289 286 282 278 273 270 270 270 271 271 265 259 259 260 266 271
188 187 189 191 195 199 208 230 248 270 284 295 300 302 304 308 308 310 309 308 307 307 306 305 305 305 303 300 295 290 286 280 275 270 268 267 269 269 266 262 255 253 259
193 193 193 200 206 214 229 244 262 278 290 295 299 304 309 309 312 313 315 315 314 315 314 314 313 312 310 309 306 302 299 294 287 281 275 270 267 267 266 263 261 259 254
197 199 203 206 214 223 236 254 277 295 301 301 301 304 306 309 315 318 320 319 317 316 313 312 311 310 308 307 305 304 301 299 295 290 285 279 273 269 267 266 262 259 257
204 206 212 214 220 234 240 255 270 285 293 297 297 299 303 306 307 310 312 314 314 312 311 310 309 308 307 305 303 301 299 297 295 293 289 286 281 275 270 267 266 262 257
211 213 215 221 228 232 243 261 278 291 295 299 300 298 298 300 304 308 311 313 313 313 312 311 309 307 306 305 304 303 301 299 298 295 292 288 284 280 275 271 267 264 262
214 216 221 225 231 233 248 264 283 295 295 295 294 294 295 300 306 311 314 316 316 315 313 314 313 312 311 309 307 305 303 303 301 298 294 290 285 281 278 273 269 265 262
217 219 227 229 236 240 248 262 275 290 295 290 291 293 298 304 310 314 316 316 316 315 315 315 313 312 311 309 308 306 306 306 305 302 299 296 289 283 278 273 270 266 262
221 224 228 231 237 239 249 261 276 288 294 287 286 290 298 303 308 312 313 313 313 314 315 316 316 314 314 313 311 310 311 309 309 305 303 298 295 290 281 275 269 265 262
224 226 232 233 237 241 250 262 274 285 290 285 283 287 294 301 306 310 311 312 314 316 316 316 316 316 315 314 312 312 311 313 310 308 306 302 297 292 287 281 273 266 263
223 225 231 233 237 241 249 264 275 284 286 281 283 290 298 303 307 308 310 312 314 315 316 316 316 316 316 315 313 311 311 311 310 308 307 301 298 295 292 287 282 276 270
222 223 227 228 233 240 254 267 274 278 280 282 287 293 298 303 306 307 308 311 314 315 317 317 316 315 315 314 315 311 312 313 308 307 304 305 301 297 294 288 287 284 281
226 226 226 226 231 241 254 264 267 275 279 283 287 293 297 301 303 306 309 312 314 315 315 315 315 314 313 315 317 319 318 311 299 297 301 291 296 299 291 286 284 283 283
220 220 224 225 230 244 253 260 270 278 283 286 288 290 295 299 302 307 310 312 315 316 317 315 315 313 311 311 311 307 319 308 311 306 287 291 293 296 290 290 289 286 282
206 212 214 220 237 249 252 266 277 281 284 286 284 286 292 296 302 307 310 312 314 314 314 313 311 308 304 304 302 299 289 284 300 304 295 297 307 304 302 302 301 296 292
197 204 212 226 237 243 264 278 282 285 286 283 284 287 291 298 305 307 309 312 312 312 311 310 310 308 305 300 301 300 292 284 281 278 292 301 299 306 308 313 313 311 305
204 209 221 227 237 265 277 283 285 285 281 280 281 284 291 298 302 304 305 307 309 310 310 309 310 310 309 302 294 288 285 283 282 285 289 296 298 306 311 310 311 317 316
Wind_Speed_850mb
40 34 30 29 23 21 26 22 19 18 17 16 16 14 14 12 10 9 8 5 9 8 5 4 5 4 5 5 7 10 11 12 13 14 17 21 25 26 19 8 8 11 15
47 44 30 28 23 19 18 19 18 17 17 15 12 10 9 7 7 4 3 4 4 5 6 6 2 4 3 3 7 10 11 13 14 14 16 19 20 22 20 6 7 7 12
48 43 36 28 22 14 17 17 20 17 15 14 12 10 7 6 4 4 3 5 6 7 9 9 9 7 7 8 8 9 10 12 14 16 14 15 17 19 16 8 11 8 10
40 38 32 32 25 19 18 18 18 13 13 13 11 9 9 9 8 9 9 11 12 12 14 15 16 15 15 15 12 13 14 15 15 18 17 17 17 17 16 11 6 15 12
35 32 29 28 22 20 19 15 15 14 11 9 8 7 7 7 8 11 13 15 16 17 18 19 20 18 17 17 18 18 17 18 19 17 19 18 16 18 17 13 8 17 18
32 30 29 27 26 23 20 18 17 15 12 11 8 7 8 9 11 13 15 17 18 19 20 21 23 23 23 22 23 24 23 21 22 21 20 21 17 18 17 15 13 11 25
31 28 28 27 23 21 19 17 15 13 11 9 9 10 11 13 15 18 20 21 23 24 25 25 25 25 25 26 26 27 26 25 27 27 24 23 23 21 20 20 17 14 17
28 28 26 26 24 21 19 17 14 11 8 8 8 10 13 15 16 19 21 23 25 27 29 30 30 30 30 30 30 29 30 31 31 33 32 28 26 26 23 24 22 20 17
27 26 26 25 22 18 15 12 9 6 6 9 11 12 14 16 16 18 20 23 24 25 27 29 31 31 32 33 34 35 35 35 36 37 38 36 31 30 28 26 26 26 25
31 28 24 22 18 14 10 7 5 5 7 10 12 13 14 15 17 18 20 22 24 25 26 27 27 28 31 32 34 36 37 38 41 43 43 45 43 39 36 35 31 31 32
36 31 25 20 16 14 10 8 7 8 8 11 14 14 15 17 18 18 19 20 22 24 26 27 29 29 29 30 32 34 35 38 41 43 46 50 51 50 47 44 42 39 37
41 34 27 23 19 14 11 9 9 9 9 12 14 16 17 18 20 21 21 22 24 25 27 28 30 31 33 33 33 35 36 37 39 41 43 47 52 56 57 56 53 50 48
41 38 32 25 21 16 12 10 10 11 13 14 16 18 18 19 21 23 24 25 26 28 29 30 32 33 35 37 36 38 39 40 42 43 43 45 49 53 57 61 61 60 58
43 36 34 29 20 16 14 12 13 14 16 17 18 18 19 20 22 24 26 28 30 31 32 35 37 38 40 41 42 42 43 44 45 46 46 47 49 52 55 59 63 64 66
42 39 34 28 21 17 14 13 14 17 18 19 20 21 22 24 25 27 29 32 34 37 39 40 42 43 45 45 46 48 48 48 48 50 51 50 51 53 55 58 61 64 69
42 39 34 29 23 19 16 14 14 16 19 21 23 25 24 27 29 31 33 36 38 41 43 45 48 50 51 53 52 52 52 51 52 53 54 55 54 56 57 59 61 64 67
42 39 35 29 25 22 20 18 19 21 23 24 25 28 29 31 34 37 39 40 42 44 46 48 50 53 55 57 58 58 58 58 57 59 60 59 59 58 59 62 63 66 68
43 39 34 32 29 27 24 22 23 25 27 27 27 29 30 35 38 42 43 43 43 44 48 53 56 59 60 63 65 66 66 66 66 67 66 64 63 62 61 60 64 67 70
42 38 35 33 31 29 28 26 27 29 28 27 28 30 33 38 42 45 45 45 45 47 51 56 58 62 66 68 71 70 69 68 67 66 61 58 54 53 55 55 57 63 68
44 40 36 36 34 31 30 30 30 29 27 27 30 33 38 43 45 45 44 44 47 50 53 57 61 63 67 73 77 77 74 71 69 56 52 52 51 50 47 46 48 50 55
48 43 38 37 35 33 31 32 31 29 30 31 33 38 41 44 44 42 42 44 48 52 56 61 66 69 71 72 78 82 81 67 58 52 41 42 43 42 41 42 44 48 51
47 43 38 36 34 32 32 33 33 32 33 34 36 40 42 43 41 40 42 47 50 54 57 61 66 72 73 67 65 68 41 65 48 35 55 38 34 38 40 43 45 48 52
42 41 35 31 31 30 33 33 34 37 38 39 40 42 41 40 38 40 45 49 52 57 62 66 68 67 66 65 52 37 21 18 64 45 34 49 38 39 46 46 50 54 58
35 35 31 30 30 29 30 33 37 41 43 41 40 37 37 37 38 43 47 51 54 59 62 64 65 62 57 56 51 38 35 36 20 38 41 63 66 49 56 57 52 50 45
30 30 29 28 28 28 31 36 42 45 43 41 38 37 35 37 42 45 48 52 55 58 60 62 61 55 47 43 36 35 32 34 41 53 69 49 73 64 69 68 60 51 47
27 29 28 29 26 29 36 40 43 44 40 40 37 37 37 40 42 45 48 50 53 56 58 57 55 48 42 38 36 37 37 39 39 47 62 68 71 78 74 67 60 52 47
Wind_Direction_850mb
167 163 143 155 153 152 148 152 156 153 150 149 152 154 158 160 161 160 146 136 112 75 56 32 36 24 9 354 343 332 334 334 341 350 353 1 6 17 34 117 125 122 127
174 177 166 170 170 177 154 146 141 148 149 149 151 153 150 155 163 159 161 171 166 158 108 64 272 253 271 335 333 321 320 322 322 330 339 346 359 11 21 106 168 164 159
180 180 179 186 190 189 176 169 147 151 152 157 161 164 168 181 195 188 218 256 259 251 251 260 276 288 290 290 285 297 305 307 308 312 322 332 341 356 11 17 185 216 206
182 187 184 189 198 202 189 166 150 163 170 173 183 195 205 222 238 257 268 275 278 280 280 286 294 303 298 292 289 285 283 290 294 299 306 318 323 337 346 357 234 207 226
174 179 193 201 205 189 179 168 173 179 183 186 195 205 221 240 249 264 270 275 277 280 281 282 284 283 278 278 280 281 281 283 286 291 293 299 304 317 326 326 319 234 220
166 163 165 172 173 170 165 165 167 173 182 192 205 230 248 265 275 276 277 277 279 280 279 280 282 282 279 275 275 279 285 285 285 283 283 286 286 295 304 303 304 279 242
172 169 166 167 169 164 162 164 165 172 183 198 220 243 257 263 272 277 281 281 281 283 282 281 279 279 280 279 276 276 276 276 277 279 275 275 280 280 289 290 289 283 262
178 175 175 170 171 173 172 174 172 183 198 224 244 266 276 280 280 282 282 283 284 285 286 286 284 282 281 279 277 276 274 273 274 276 277 274 270 276 284 288 287 278 269
176 178 176 174 175 173 176 179 186 208 246 268 275 276 284 289 289 291 292 293 293 291 289 290 289 288 286 283 278 275 273 272 270 269 273 274 269 266 267 272 279 282 274
180 181 182 179 180 184 193 209 230 258 280 289 293 294 298 300 303 303 303 304 303 301 301 299 296 293 291 289 286 282 278 273 270 270 270 271 271 265 259 259 260 266 271
188 187 189 191 195 199 208 230 248 270 284 295 300 302 304 308 308 310 309 308 307 307 306 305 305 305 303 300 295 290 286 280 275 270 268 267 269 269 266 262 255 253 259
193 193 193 200 206 214 229 244 262 278 290 295 299 304 309 309 312 313 315 315 314 315 314 314 313 312 310 309 306 302 299 294 287 281 275 270 267 267 266 263 261 259 254
197 199 203 206 214 223 236 254 277 295 301 301 301 304 306 309 315 318 320 319 317 316 313 312 311 310 308 307 305 304 301 299 295 290 285 279 273 269 267 266 262 259 257
204 206 212 214 220 234 240 255 270 285 293 297 297 299 303 306 307 310 312 314 314 312 311 310 309 308 307 305 303 301 299 297 295 293 289 286 281 275 270 267 266 262 257
211 213 215 221 228 232 243 261 278 291 295 299 300 298 298 300 304 308 311 313 313 313 312 311 309 307 306 305 304 303 301 299 298 295 292 288 284 280 275 271 267 264 262
214 216 221 225 231 233 248 264 283 295 295 295 294 294 295 300 306 311 314 316 316 315 313 314 313 312 311 309 307 305 303 303 301 298 294 290 285 281 278 273 269 265 262
217 219 227 229 236 240 248 262 275 290 295 290 291 293 298 304 310 314 316 316 316 315 315 315 313 312 311 309 308 306 306 306 305 302 299 296 289 283 278 273 270 266 262
221 224 228 231 237 239 249 261 276 288 294 287 286 290 298 303 308 312 313 313 313 314 315 316 316 314 314 313 311 310 311 309 309 305 303 298 295 290 281 275 269 265 262
224 226 232 233 237 241 250 262 274 285 290 285 283 287 294 301 306 310 311 312 314 316 316 316 316 316 315 314 312 312 311 313 310 308 306 302 297 292 287 281 273 266 263
223 225 231 233 237 241 249 264 275 284 286 281 283 290 298 303 307 308 310 312 314 315 316 316 316 316 316 315 313 311 311 311 310 308 307 301 298 295 292 287 282 276 270
222 223 227 228 233 240 254 267 274 278 280 282 287 293 298 303 306 307 308 311 314 315 317 317 316 315 315 314 315 311 312 313 308 307 304 305 301 297 294 288 287 284 281
226 226 226 226 231 241 254 264 267 275 279 283 287 293 297 301 303 306 309 312 314 315 315 315 315 314 313 315 317 319 318 311 299 297 301 291 296 299 291 286 284 283 283
220 220 224 225 230 244 253 260 270 278 283 286 288 290 295 299 302 307 310 312 315 316 317 315 315 313 311 311 311 307 319 308 311 306 287 291 293 296 290 290 289 286 282
206 212 214 220 237 249 252 266 277 281 284 286 284 286 292 296 302 307 310 312 314 314 314 313 311 308 304 304 302 299 289 284 300 304 295 297 307 304 302 302 301 296 292
197 204 212 226 237 243 264 278 282 285 286 283 284 287 291 298 305 307 309 312 312 312 311 310 310 308 305 300 301 300 292 284 281 278 292 301 299 306 308 313 313 311 305
204 209 221 227 237 265 277 283 285 285 281 280 281 284 291 298 302 304 305 307 309 310 310 309 310 310 309 302 294 288 285 283 282 285 289 296 298 306 311 310 311 317 316